NPP [+]

Last updated on Thu Feb 01 2018 00:19:14 GMT+0000 (Coordinated Universal Time)

1 37849U 11061A 18031.60482480 -.00000004 00000-0 18614-4 0 9994 2 37849 98.7256 331.9929 0000903 116.0507 348.5585 14.19560958324508
UTC large
Height (km)
Speed (km/s)
/
Latitude / Longitude
Inclination (degrees)
Orbital Period (minutes)
Azimuth
Elevation
Range (km)
Doppler Factor

Next 0 passes for location: London (51.5072 / 0.1276)

Sorry there are no passes over London.